This is the latest recevied weather packets stored in our database for station/object K3SV. If no packets are shown the sender has not sent any weather packets the latest 10 day(s).
| Time | Temp. | Humidity | Pressure | Rain* | Wind** | Luminosity | Snow |
|---|---|---|---|---|---|---|---|
| 1778031301 | 24.44° C | 66% | 1015.9 hPa | 0 mm | - | 0 W/m² | - |
| 1778030997 | 24.44° C | 66% | 1015.6 hPa | 0 mm | - | 0 W/m² | - |
| 1778030693 | 25° C | 66% | 1015.7 hPa | 0 mm | - | 0 W/m² | - |
| 1778030390 | 25° C | 65% | 1015.7 hPa | 0 mm | - | 0 W/m² | - |
| 1778030088 | 25° C | 65% | 1015.4 hPa | 0 mm | - | 0 W/m² | - |
| 1778029784 | 25° C | 65% | 1015.4 hPa | 0 mm | - | 0 W/m² | - |
| 1778029484 | 25° C | 67% | 1015.4 hPa | 0 mm | - | 0 W/m² | - |
| 1778029179 | 24.44° C | 70% | 1015.5 hPa | 0 mm | - | 0 W/m² | - |
| 1778028877 | 25° C | 70% | 1015.4 hPa | 0 mm | - | 0 W/m² | - |
| 1778028572 | 25° C | 69% | 1015.2 hPa | 0 mm | - | 0 W/m² | - |
| 1778028271 | 25° C | 69% | 1015 hPa | 0 mm | - | 0 W/m² | - |
| 1778027966 | 25° C | 68% | 1015 hPa | 0 mm | - | 0 W/m² | - |
| 1778027663 | 25° C | 67% | 1014.9 hPa | 0 mm | - | 0 W/m² | - |
| 1778027360 | 25.56° C | 66% | 1014.8 hPa | 0 mm | - | 0 W/m² | - |
| 1778027055 | 25.56° C | 66% | 1014.8 hPa | 0 mm | - | 0 W/m² | - |
| 1778026751 | 25.56° C | 65% | 1014.5 hPa | 0 mm | - | 0 W/m² | - |
| 1778026448 | 26.11° C | 65% | 1014.4 hPa | 0 mm | - | 1 W/m² | - |
| 1778026145 | 26.11° C | 64% | 1014.6 hPa | 0 mm | - | 2 W/m² | - |
| 1778025843 | 26.11° C | 64% | 1014.7 hPa | 0 mm | - | 3 W/m² | - |
| 1778025539 | 26.67° C | 62% | 1014.4 hPa | 0 mm | - | 7 W/m² | - |
| 1778025238 | 26.67° C | 62% | 1014.6 hPa | 0 mm | - | 10 W/m² | - |
| 1778024934 | 27.22° C | 61% | 1014.5 hPa | 0 mm | - | 16 W/m² | - |
| 1778024632 | 27.22° C | 60% | 1014.2 hPa | 0 mm | - | 21 W/m² | - |
| 1778024328 | 27.78° C | 59% | 1014.2 hPa | 0 mm | - | 27 W/m² | - |
| 1778024026 | 28.33° C | 57% | 1014 hPa | 0 mm | - | 33 W/m² | - |
* Rain latest hour (hover to see other rain measurements)
** Current wind speed in m/s (hover to see current wind gust speed)